Location: Terra Rouge Observatory
(46.0000°N, 62.7500°W)
Time: 14:17:58
(UTC-04:00)

Amateur Radio Satellites - All Passes

Search period start: 19 December 2014 13:47
Search period end: 20 December 2014 13:47
Location: Terra Rouge Observatory, 46.0000°N, 62.7500°W

Satellite Date Start Highest point End Downlink Frequencies (MHz)
Time Altitude Azimuth
KKS-1 19 Dec 13:48:37 13:51:33 17° 91° (E) 13:54:27 437.445
STARS 19 Dec 13:49:22 13:50:47 11° 88° (E) 13:52:12 437.465
BEESAT 19 Dec 13:57:32 14:02:21 90° 104° (ESE) 14:07:07 436.000
AUBIESAT-1 19 Dec 14:03:10 14:07:15 35° 101° (E) 14:11:00 437.475
AO-7 19 Dec 14:04:36 14:12:02 38° 56° (NE) 14:19:30 29.400- 29.500
JAS-2 19 Dec 14:06:58 14:09:54 13° 50° (NE) 14:12:44 435.910
ISS 19 Dec 14:11:00 14:13:57 30° 141° (SE) 14:16:54 145.825
BEESAT 2 19 Dec 14:17:28 14:21:36 85° 306° (NW) 14:25:49 435.950
HORYU 2 19 Dec 14:18:26 14:22:49 60° 72° (ENE) 14:27:16 437.375
M-CUBED/EXP-1 PRIME 19 Dec 14:27:30 14:32:01 71° 107° (ESE) 14:36:06 437.505
RS-15 19 Dec 14:32:30 14:42:49 45° 326° (NW) 14:53:21 29.354- 29.394
GONETS M04 19 Dec 14:44:29 14:49:39 16° 53° (NE) 14:54:46
Gurwin Techsat 1B 19 Dec 15:02:53 15:07:16 26° 267° (W) 15:11:42 435.225
PCSat 19 Dec 15:03:47 15:09:07 57° 307° (NW) 15:14:29 145.827
ITUPSAT 1 19 Dec 15:10:45 15:14:21 22° 298° (WNW) 15:17:56 437.325
SWISSCUBE 19 Dec 15:11:01 15:14:25 20° 299° (WNW) 15:17:49 437.505
AIST 2 19 Dec 15:15:54 15:20:03 50° 311° (NW) 15:24:16 435.215
BEESAT 3 19 Dec 15:17:58 15:21:27 25° 319° (NW) 15:24:58 437.485
ITAMSAT 1 19 Dec 15:18:56 15:20:48 12° 273° (W) 15:22:40 435.822/435.867
STARS 19 Dec 15:23:22 15:27:49 79° 285° (WNW) 15:32:15 437.465
KKS-1 19 Dec 15:24:09 15:28:31 54° 289° (WNW) 15:32:52 437.445
BEESAT 19 Dec 15:37:17 15:39:29 13° 303° (WNW) 15:41:40 436.000
AUBIESAT-1 19 Dec 15:38:19 15:42:04 27° 301° (WNW) 15:45:33 437.475
AIST 1 19 Dec 15:40:32 15:43:16 16° 85° (E) 15:46:00
JAS-2 19 Dec 15:46:18 15:53:40 55° 69° (ENE) 16:00:24 435.910
ISS 19 Dec 15:47:11 15:50:26 52° 339° (NNW) 15:53:40 145.825
AO-7 19 Dec 15:56:19 16:04:29 59° 257° (WSW) 16:12:45 29.400- 29.500
HORYU 2 19 Dec 15:57:14 15:59:53 16° 270° (W) 16:02:34 437.375
BEESAT 2 19 Dec 15:57:53 16:00:31 16° 326° (NNW) 16:03:10 435.950
M-CUBED/EXP-1 PRIME 19 Dec 16:03:42 16:06:24 16° 307° (NW) 16:09:00 437.505
Cubesat XI-IV 19 Dec 16:21:24 16:25:31 23° 61° (ENE) 16:29:38 437.490
MOZHAYETS 4 19 Dec 16:24:01 16:27:51 25° 93° (E) 16:31:39
GONETS M04 19 Dec 16:39:39 16:48:26 69° 78° (ENE) 16:57:06
RS-15 19 Dec 16:49:40 16:58:51 29° 359° (N) 17:08:16 29.354- 29.394
PCSat 19 Dec 16:50:37 16:53:44 15° 330° (NNW) 16:56:52 145.827
CUTE-I 19 Dec 16:53:59 16:58:56 41° 67° (ENE) 17:03:54 437.470
AIST 2 19 Dec 16:57:56 16:59:41 12° 333° (NNW) 17:01:27 435.215
STARS 19 Dec 17:02:47 17:03:32 10° 304° (WNW) 17:04:17 437.465
AIST 1 19 Dec 17:16:15 17:20:31 50° 283° (WNW) 17:24:47
ISS 19 Dec 17:24:32 17:27:28 29° 359° (N) 17:30:24 145.825
JAS-2 19 Dec 17:32:04 17:38:53 34° 265° (W) 17:45:13 435.910
PRISM 19 Dec 17:37:18 17:40:24 20° 93° (E) 17:43:27 437.425
CUBESAT XI-V 19 Dec 17:44:36 17:46:49 13° 88° (E) 17:49:01 437.345
AO-7 19 Dec 17:57:04 17:59:04 11° 277° (W) 18:01:05 29.400- 29.500
Cubesat XI-IV 19 Dec 18:00:00 18:05:14 56° 259° (W) 18:10:29 437.490
MOZHAYETS 4 19 Dec 18:00:54 18:05:11 38° 291° (WNW) 18:09:27
CUSAT 1 19 Dec 18:08:12 18:09:05 10° 52° (NE) 18:09:59 437.405
CUTE-I 19 Dec 18:34:30 18:39:07 30° 265° (W) 18:43:45 437.470
GONETS M04 19 Dec 18:37:25 18:44:31 29° 279° (W) 18:51:35
MaSat-1 19 Dec 18:39:45 18:42:01 41° 245° (WSW) 18:44:25 437.345
DANDE 19 Dec 18:50:52 18:55:43 18° 60° (ENE) 19:01:03 436.750
HO-68 19 Dec 18:51:08 18:57:18 32° 58° (ENE) 19:03:29 435.675
STRAND 1 19 Dec 19:01:02 19:06:06 60° 101° (ESE) 19:11:07 437.568
ISS 19 Dec 19:01:20 19:04:32 47° 19° (NNE) 19:07:43 145.825
BRITE-PL 19 Dec 19:01:45 19:04:24 17° 63° (ENE) 19:07:04 437.365/2234.400
RS-15 19 Dec 19:04:29 19:14:59 44° 33° (NNE) 19:25:51 29.354- 29.394
AAUSAT CUBESAT 2 19 Dec 19:06:16 19:07:51 12° 59° (ENE) 19:09:27 437.432
PRISM 19 Dec 19:12:11 19:16:06 40° 291° (WNW) 19:19:57 437.425
CANX-2 19 Dec 19:13:32 19:16:52 23° 65° (ENE) 19:20:13 2200.000
CUBESAT XI-V 19 Dec 19:20:11 19:24:47 72° 286° (WNW) 19:29:21 437.345
GOMX 1 19 Dec 19:33:30 19:36:52 25° 66° (ENE) 19:40:17 467.674
COMPASS 1 19 Dec 19:38:24 19:41:58 27° 67° (ENE) 19:45:33 437.405
SEEDS 19 Dec 19:42:01 19:45:51 34° 69° (ENE) 19:49:43 437.485
CUTE 1.7 + AOD 2 19 Dec 19:43:42 19:47:42 40° 70° (ENE) 19:51:44 437.475
CUSAT 1 19 Dec 19:46:51 19:53:54 45° 72° (ENE) 20:01:53 437.405
DX 1 19 Dec 19:53:05 19:55:48 17° 61° (ENE) 19:58:31 434.975-435.025
DELFI C3 19 Dec 20:02:40 20:05:35 19° 64° (ENE) 20:08:31 145.870
DOVE 4 19 Dec 20:03:43 20:07:31 37° 69° (ENE) 20:11:24 437.250
Oscar 11 19 Dec 20:16:15 20:20:05 32° 68° (ENE) 20:23:57 145.826/435.025
BEESAT 3 19 Dec 20:19:35 20:21:43 14° 31° (NNE) 20:23:50 437.485
HUMSAT D 19 Dec 20:20:48 20:21:15 10° 58° (ENE) 20:21:42 437.325/437.525
UKube-1 19 Dec 20:24:06 20:27:54 31° 67° (ENE) 20:31:43 .
PCSat 19 Dec 20:24:16 20:26:02 11° 23° (NNE) 20:27:48 145.827
CUBEBUG 2 19 Dec 20:28:32 20:32:02 26° 66° (ENE) 20:35:38 437.445
DANDE 19 Dec 20:32:48 20:40:10 73° 78° (ENE) 20:48:47 436.750
CINEMA 3 19 Dec 20:37:10 20:41:11 50° 72° (ENE) 20:45:20 145.822/145.860
HO-68 19 Dec 20:37:34 20:44:38 60° 258° (WSW) 20:51:45 435.675
ISS 19 Dec 20:38:02 20:41:04 35° 218° (SW) 20:44:05 145.825
BRITE-PL 19 Dec 20:38:33 20:42:36 48° 261° (W) 20:46:39 437.365/2234.400
AAUSAT CUBESAT 2 19 Dec 20:38:41 20:42:53 81° 257° (WSW) 20:47:09 437.432
STRAND 1 19 Dec 20:41:09 20:44:51 21° 300° (WNW) 20:48:33 437.568
VELOX 1 19 Dec 20:42:39 20:45:40 18° 62° (ENE) 20:48:41 145.980
ZACube-1 19 Dec 20:43:56 20:47:31 28° 67° (ENE) 20:51:10 437.345
CANX-2 19 Dec 20:48:36 20:52:35 38° 263° (W) 20:56:38 2200.000
BEESAT 2 19 Dec 20:57:47 21:01:03 21° 38° (NE) 21:04:18 435.950
UWE-3 19 Dec 21:08:19 21:12:25 58° 73° (ENE) 21:16:39 435.000/436.395/437.385
FUNcube-1 19 Dec 21:10:27 21:14:30 51° 72° (ENE) 21:18:39 145.935
GOMX 1 19 Dec 21:11:14 21:14:56 31° 264° (W) 21:18:40 467.674
COMPASS 1 19 Dec 21:13:51 21:17:36 31° 264° (W) 21:21:24 437.405
RS-15 19 Dec 21:17:10 21:28:23 77° 239° (WSW) 21:40:06 29.354- 29.394
SEEDS 19 Dec 21:18:16 21:21:44 24° 266° (W) 21:25:15 437.485
CUTE 1.7 + AOD 2 19 Dec 21:20:35 21:23:48 21° 268° (W) 21:27:02 437.475
AISAT 19 Dec 21:23:45 21:27:57 45° 70° (ENE) 21:32:10 437.250
DX 1 19 Dec 21:27:19 21:31:36 59° 259° (WSW) 21:35:55 434.975-435.025
CUSAT 1 19 Dec 21:29:56 21:37:04 48° 268° (W) 21:45:04 437.405
SO-50 19 Dec 21:30:00 21:34:28 60° 122° (ESE) 21:39:06 436.795
ANTELSAT 19 Dec 21:32:28 21:34:01 11° 87° (E) 21:35:34 437.575/2403.000
CUBEBUG 1 19 Dec 21:34:37 21:38:03 23° 65° (ENE) 21:41:28 437.445
DELFI C3 19 Dec 21:36:37 21:40:33 44° 261° (W) 21:44:32 145.870
50 SAT 19 Dec 21:38:38 21:42:31 49° 72° (ENE) 21:46:27 437.505
DOVE 4 19 Dec 21:42:21 21:45:29 21° 268° (W) 21:48:39 437.250
HUMSAT D 19 Dec 21:52:12 21:56:20 87° 76° (ENE) 22:00:33 437.325/437.525
Oscar 11 19 Dec 21:52:34 21:56:16 27° 265° (W) 22:00:00 145.826/435.025
QB50P1 19 Dec 21:53:42 21:54:24 10° 88° (E) 21:55:06 145.935-145.965
BEESAT 3 19 Dec 21:56:33 22:00:43 64° 51° (NE) 22:04:50 437.485
AIST 2 19 Dec 21:57:16 22:01:13 33° 44° (NE) 22:05:06 435.215
YUBILEINY 19 Dec 21:59:20 22:02:16 12° 70° (ENE) 22:05:11 435.215
UKube-1 19 Dec 22:00:18 22:04:03 28° 264° (W) 22:07:49 .
CUBEBUG 2 19 Dec 22:04:57 22:08:40 31° 265° (W) 22:12:29 437.445
PCSat 19 Dec 22:06:04 22:11:06 37° 47° (NE) 22:16:07 145.827
TIGRISAT 19 Dec 22:06:49 22:10:40 25° 94° (E) 22:14:32 435.000
ESTCUBE 1 19 Dec 22:15:58 22:20:27 62° 73° (ENE) 22:24:57 437.505/2401.250
CINEMA 3 19 Dec 22:16:13 22:18:46 16° 270° (W) 22:21:22 145.822/145.860
DANDE 19 Dec 22:17:06 22:23:15 28° 273° (W) 22:30:06 436.750
VELOX 1 19 Dec 22:17:33 22:21:52 53° 260° (W) 22:26:13 145.980
POPSAT HIP 1 19 Dec 22:20:06 22:23:18 20° 93° (E) 22:26:30 437.405
ZACube-1 19 Dec 22:20:12 22:23:51 29° 265° (W) 22:27:35 437.345
UNISAT 6 19 Dec 22:34:57 22:39:30 46° 99° (E) 22:44:03 437.425
BEESAT 2 19 Dec 22:35:31 22:39:41 61° 238° (WSW) 22:43:46 435.950
SPROUT 19 Dec 22:46:25 22:50:08 30° 67° (ENE) 22:53:52 437.525
TISAT 1 19 Dec 22:46:27 22:50:10 32° 68° (ENE) 22:53:55 437.305
UWE-3 19 Dec 22:47:11 22:49:24 14° 271° (W) 22:51:40 435.000/436.395/437.385
DUCHIFAT 1 19 Dec 22:48:06 22:52:06 39° 98° (E) 22:56:05 145.980
FUNcube-1 19 Dec 22:48:38 22:51:12 16° 270° (W) 22:53:49 145.935
BUGSAT 1 19 Dec 22:52:17 22:55:59 34° 97° (E) 22:59:42 437.445
QB50P2 19 Dec 23:00:45 23:04:58 55° 101° (E) 23:09:09 145.880/145.840
AISAT 19 Dec 23:01:34 23:04:48 20° 267° (W) 23:08:03 437.250
ANTELSAT 19 Dec 23:06:41 23:11:25 87° 284° (WNW) 23:16:10 437.575/2403.000
SWISSCUBE 19 Dec 23:07:00 23:08:59 13° 56° (ENE) 23:10:57 437.505
ITUPSAT 1 19 Dec 23:07:30 23:09:05 12° 56° (NE) 23:10:40 437.325
POLYITAN 1 19 Dec 23:09:10 23:13:27 68° 102° (ESE) 23:17:44 437.675
CUBEBUG 1 19 Dec 23:10:07 23:14:13 39° 262° (W) 23:18:19 437.445
SO-50 19 Dec 23:11:33 23:15:23 25° 322° (NW) 23:19:20 436.795
NANOSAT C BR1 19 Dec 23:12:20 23:16:36 72° 102° (ESE) 23:20:51 145.865
50 SAT 19 Dec 23:15:41 23:18:03 15° 269° (W) 23:20:27 437.505
AUBIESAT-1 19 Dec 23:22:03 23:24:11 13° 51° (NE) 23:26:20 437.475
QB50P1 19 Dec 23:26:34 23:30:51 81° 285° (WNW) 23:35:07 145.935-145.965
BEESAT 19 Dec 23:30:39 23:33:57 19° 61° (ENE) 23:37:15 436.000
RS-15 19 Dec 23:31:30 23:38:53 20° 261° (W) 23:46:30 29.354- 29.394
AIST 2 19 Dec 23:35:57 23:39:50 33° 243° (WSW) 23:43:39 435.215
BEESAT 3 19 Dec 23:35:59 23:38:25 15° 250° (WSW) 23:40:51 437.485
TIGRISAT 19 Dec 23:43:09 23:47:32 40° 291° (WNW) 23:51:56 435.000
M-CUBED/EXP-1 PRIME 19 Dec 23:45:06 23:48:45 21° 56° (NE) 23:52:24 437.505
YUBILEINY 19 Dec 23:48:35 23:57:08 62° 92° (E) 00:05:40 435.215
PCSat 19 Dec 23:49:31 23:54:34 41° 247° (WSW) 23:59:35 145.827
ESTCUBE 1 19 Dec 23:55:06 23:57:44 15° 270° (W) 00:00:23 437.505/2401.250
POPSAT HIP 1 19 Dec 23:55:22 23:59:22 40° 290° (WNW) 00:03:22 437.405
UNISAT 6 20 Dec 00:12:21 00:16:00 23° 296° (WNW) 00:19:40 437.425
SPROUT 20 Dec 00:22:30 00:26:12 28° 265° (W) 00:29:55 437.525
TISAT 1 20 Dec 00:22:32 00:26:02 25° 265° (W) 00:29:33 437.305
DUCHIFAT 1 20 Dec 00:24:28 00:27:45 22° 295° (WNW) 00:31:01 145.980
BUGSAT 1 20 Dec 00:28:08 00:31:20 23° 294° (WNW) 00:34:31 437.445
O/OREOS (USA 219) 20 Dec 00:28:14 00:32:11 32° 105° (ESE) 00:36:09 437.305
QB50P2 20 Dec 00:37:45 00:40:29 17° 298° (WNW) 00:43:13 145.880/145.840
SWISSCUBE 20 Dec 00:41:17 00:46:05 85° 75° (ENE) 00:50:55 437.505
ITUPSAT 1 20 Dec 00:41:21 00:46:10 78° 74° (ENE) 00:50:59 437.325
ANTELSAT 20 Dec 00:45:33 00:47:30 13° 302° (WNW) 00:49:27 437.575/2403.000
POLYITAN 1 20 Dec 00:46:36 00:48:53 14° 300° (WNW) 00:51:11 437.675
STARS 20 Dec 00:48:48 00:51:19 15° 60° (ENE) 00:53:52 437.465
KKS-1 20 Dec 00:49:27 00:52:50 22° 64° (ENE) 00:56:14 437.445
NANOSAT C BR1 20 Dec 00:49:52 00:51:56 13° 300° (WNW) 00:53:59 145.865
AUBIESAT-1 20 Dec 00:53:29 00:58:19 74° 69° (ENE) 01:03:13 437.475
BEESAT 20 Dec 01:06:37 01:11:21 61° 259° (WSW) 01:16:07 436.000
M-CUBED/EXP-1 PRIME 20 Dec 01:18:30 01:23:18 62° 254° (WSW) 01:28:12 437.505
Oscar 19 20 Dec 01:32:02 01:37:08 53° 100° (E) 01:42:12 437.125/150
Gurwin Techsat 1B 20 Dec 01:37:04 01:40:01 15° 88° (E) 01:42:57 435.225
ITAMSAT 1 20 Dec 01:46:11 01:50:34 27° 94° (E) 01:54:56 435.822/435.867
YUBILEINY 20 Dec 01:46:48 01:54:29 33° 294° (WNW) 02:02:12 435.215
O/OREOS (USA 219) 20 Dec 02:07:38 02:11:34 30° 304° (NW) 02:15:32 437.305
ITUPSAT 1 20 Dec 02:22:21 02:24:38 13° 271° (W) 02:26:54 437.325
SWISSCUBE 20 Dec 02:22:47 02:24:35 12° 272° (W) 02:26:24 437.505
STARS 20 Dec 02:22:57 02:27:18 66° 258° (WSW) 02:31:41 437.465
KKS-1 20 Dec 02:25:00 02:29:13 43° 261° (W) 02:33:28 437.445
AUBIESAT-1 20 Dec 02:30:49 02:33:43 16° 266° (W) 02:36:40 437.475
Oscar 19 20 Dec 03:12:03 03:16:08 24° 298° (WNW) 03:20:12 437.125/150
Gurwin Techsat 1B 20 Dec 03:15:17 03:20:37 80° 286° (WNW) 03:25:55 435.225
VERMONT LUNAR 20 Dec 03:16:19 03:18:08 14° 154° (SSE) 03:19:56 437.305
AIST 1 20 Dec 03:20:58 03:25:09 49° 77° (ENE) 03:29:17
ITAMSAT 1 20 Dec 03:25:21 03:30:13 42° 292° (WNW) 03:35:03 435.822/435.867
PHONESAT 2.4 20 Dec 03:26:50 03:28:08 12° 152° (SSE) 03:29:28 2401.200-2431.200
MOZHAYETS 4 20 Dec 03:28:25 03:32:31 32° 67° (ENE) 03:36:39
HORYU 2 20 Dec 03:44:01 03:48:34 87° 104° (ESE) 03:53:06 437.375
GONETS M04 20 Dec 03:52:13 03:56:44 15° 72° (ENE) 04:01:14
AO-7 20 Dec 03:54:57 04:02:50 43° 99° (E) 04:10:38 29.400- 29.500
SO-50 20 Dec 04:19:09 04:22:59 22° 36° (NE) 04:26:50 436.795
PRISM 20 Dec 04:30:34 04:33:53 23° 64° (ENE) 04:37:11 437.425
JAS-2 20 Dec 04:39:19 04:44:23 32° 93° (E) 04:49:04 435.910
STRAND 1 20 Dec 04:42:43 04:45:58 17° 58° (ENE) 04:49:12 437.568
CUBESAT XI-V 20 Dec 04:50:20 04:53:36 19° 62° (ENE) 04:56:50 437.345
VERMONT LUNAR 20 Dec 04:52:42 04:55:49 29° 170° (S) 04:58:57 437.305
Gurwin Techsat 1B 20 Dec 04:57:16 04:59:44 13° 305° (NW) 05:02:12 435.225
AIST 1 20 Dec 04:59:49 05:02:22 16° 275° (W) 05:04:55
PHONESAT 2.4 20 Dec 05:03:00 05:06:08 28° 168° (SSE) 05:09:17 2401.200-2431.200
MOZHAYETS 4 20 Dec 05:05:37 05:09:43 31° 265° (W) 05:13:52
CUTE-I 20 Dec 05:10:20 05:12:38 13° 87° (E) 05:14:54 437.470
HORYU 2 20 Dec 05:22:38 05:24:34 13° 302° (WNW) 05:26:29 437.375
GONETS M04 20 Dec 05:43:06 05:51:52 72° 94° (E) 06:00:40
AO-7 20 Dec 05:47:45 05:55:44 51° 299° (WNW) 06:03:41 29.400- 29.500
SO-50 20 Dec 05:59:11 06:04:05 79° 236° (SW) 06:09:00 436.795
PRISM 20 Dec 06:05:15 06:09:12 38° 262° (W) 06:13:11 437.425
Cubesat XI-IV 20 Dec 06:14:42 06:19:51 48° 99° (E) 06:24:58 437.490
STRAND 1 20 Dec 06:19:27 06:24:34 75° 257° (WSW) 06:29:42 437.568
JAS-2 20 Dec 06:24:18 06:29:37 38° 295° (WNW) 06:34:30 435.910
CUBESAT XI-V 20 Dec 06:26:02 06:30:38 56° 260° (W) 06:35:14 437.345
VERMONT LUNAR 20 Dec 06:30:34 06:33:43 31° 187° (S) 06:36:53 437.305
PHONESAT 2.4 20 Dec 06:41:06 06:44:24 33° 185° (S) 06:47:42 2401.200-2431.200
CUTE-I 20 Dec 06:48:05 06:53:26 90° 108° (ESE) 06:58:46 437.470
GONETS M04 20 Dec 07:42:07 07:49:32 29° 296° (WNW) 07:57:00
SO-50 20 Dec 07:42:21 07:43:51 11° 253° (WSW) 07:45:20 436.795
AO-7 20 Dec 07:42:33 07:46:36 15° 322° (NW) 07:50:40 29.400- 29.500
Cubesat XI-IV 20 Dec 07:55:19 07:59:41 27° 298° (WNW) 08:04:03 437.490
HO-68 20 Dec 08:03:10 08:08:46 24° 92° (E) 08:14:20 435.675
VERMONT LUNAR 20 Dec 08:09:18 08:11:28 15° 204° (SSW) 08:13:37 437.305
PHONESAT 2.4 20 Dec 08:19:58 08:22:33 19° 201° (SSW) 08:25:08 2401.200-2431.200
AAUSAT CUBESAT 2 20 Dec 08:21:22 08:23:39 14° 89° (E) 08:25:56 437.432
CUTE-I 20 Dec 08:29:48 08:32:46 15° 304° (NW) 08:35:45 437.470
CINEMA 3 20 Dec 08:31:23 08:32:59 12° 88° (E) 08:34:35 145.822/145.860
CANX-2 20 Dec 08:31:42 08:35:32 30° 95° (E) 08:39:21 2200.000
ANTELSAT 20 Dec 08:34:14 08:36:35 14° 59° (ENE) 08:38:58 437.575/2403.000
BRITE-PL 20 Dec 08:39:35 08:43:58 40° 98° (E) 08:48:40 437.365/2234.400
QB50P1 20 Dec 08:49:04 08:50:49 12° 59° (ENE) 08:52:34 145.935-145.965
COMPASS 1 20 Dec 08:55:01 08:58:58 35° 97° (E) 09:02:52 437.405
O/OREOS (USA 219) 20 Dec 08:57:04 08:59:35 15° 47° (NE) 09:02:06 437.305
UWE-3 20 Dec 08:58:14 08:59:28 11° 87° (E) 09:00:42 435.000/436.395/437.385
SEEDS 20 Dec 08:59:41 09:03:51 47° 99° (E) 09:07:58 437.485
CUTE 1.7 + AOD 2 20 Dec 09:02:19 09:06:36 58° 100° (E) 09:10:50 437.475
CUSAT 1 20 Dec 09:02:57 09:06:05 24° 85° (E) 09:09:59 437.405
TIGRISAT 20 Dec 09:08:25 09:12:09 28° 66° (ENE) 09:15:58 435.000
GOMX 1 20 Dec 09:08:56 09:13:34 56° 100° (E) 09:18:31 467.674
DX 1 20 Dec 09:14:06 09:17:16 19° 93° (E) 09:20:24 434.975-435.025
DELFI C3 20 Dec 09:15:18 09:18:32 22° 93° (E) 09:21:45 145.870
POPSAT HIP 1 20 Dec 09:15:55 09:19:10 22° 65° (ENE) 09:22:26 437.405
MaSat-1 20 Dec 09:33:23 09:35:33 37° 301° (WNW) 09:37:40 437.345
HUMSAT D 20 Dec 09:36:06 09:38:05 13° 89° (E) 09:40:03 437.325/437.525
UNISAT 6 20 Dec 09:36:38 09:40:54 54° 72° (ENE) 09:45:18 437.425
DOVE 4 20 Dec 09:36:47 09:41:31 78° 103° (ESE) 09:46:32 437.250
Oscar 11 20 Dec 09:36:50 09:41:02 44° 99° (E) 09:45:12 145.826/435.025
RS-15 20 Dec 09:42:00 09:44:17 11° 92° (E) 09:46:34 29.354- 29.394
DUCHIFAT 1 20 Dec 09:43:23 09:47:19 40° 70° (ENE) 09:51:17 145.980
UKube-1 20 Dec 09:45:07 09:49:11 38° 98° (E) 09:53:13 .
BUGSAT 1 20 Dec 09:45:08 09:48:51 34° 69° (ENE) 09:52:32 437.445
HO-68 20 Dec 09:49:59 09:57:07 72° 291° (WNW) 10:04:12 435.675
DANDE 20 Dec 09:51:29 09:54:59 64° 96° (E) 09:59:44 436.750
CUBEBUG 2 20 Dec 09:52:50 09:57:16 45° 98° (E) 10:01:47 437.445
AAUSAT CUBESAT 2 20 Dec 09:55:31 09:59:43 59° 287° (WNW) 10:03:52 437.432
YUBILEINY 20 Dec 09:55:45 10:03:32 35° 67° (ENE) 10:11:17 435.215
QB50P2 20 Dec 09:56:19 10:00:27 57° 72° (ENE) 10:04:37 145.880/145.840
POLYITAN 1 20 Dec 10:04:55 10:09:06 71° 74° (ENE) 10:13:19 437.675
ZACube-1 20 Dec 10:05:43 10:10:03 44° 98° (E) 10:14:26 437.345
CINEMA 3 20 Dec 10:06:01 10:10:45 88° 285° (WNW) 10:15:39 145.822/145.860
VELOX 1 20 Dec 10:06:22 10:09:57 24° 94° (E) 10:13:32 145.980
NANOSAT C BR1 20 Dec 10:07:35 10:11:46 75° 75° (ENE) 10:16:00 145.865
CANX-2 20 Dec 10:07:42 10:11:24 28° 293° (WNW) 10:15:06 2200.000
ANTELSAT 20 Dec 10:08:25 10:12:47 73° 258° (WSW) 10:17:18 437.575/2403.000
ESTCUBE 1 20 Dec 10:09:08 10:10:12 11° 87° (E) 10:11:15 437.505/2401.250
BRITE-PL 20 Dec 10:18:33 10:22:21 26° 293° (WNW) 10:26:24 437.365/2234.400
QB50P1 20 Dec 10:21:54 10:26:06 77° 257° (WSW) 10:30:21 145.935-145.965
COMPASS 1 20 Dec 10:31:05 10:34:32 24° 294° (WNW) 10:37:56 437.405
UWE-3 20 Dec 10:32:00 10:36:35 87° 284° (WNW) 10:41:15 435.000/436.395/437.385
FUNcube-1 20 Dec 10:32:31 10:37:03 81° 103° (ESE) 10:41:38 145.935
O/OREOS (USA 219) 20 Dec 10:35:06 10:39:38 85° 247° (WSW) 10:44:10 437.305
SEEDS 20 Dec 10:36:17 10:39:21 19° 296° (WNW) 10:42:23 437.485
CUTE 1.7 + AOD 2 20 Dec 10:39:24 10:42:05 16° 298° (WNW) 10:44:46 437.475
TIGRISAT 20 Dec 10:44:56 10:48:49 32° 264° (W) 10:52:50 435.000
CUSAT 1 20 Dec 10:45:31 10:48:58 29° 295° (WNW) 10:53:25 437.405
GOMX 1 20 Dec 10:48:01 10:51:22 20° 296° (WNW) 10:54:53 467.674
AISAT 20 Dec 10:48:44 10:53:09 66° 102° (ESE) 10:57:34 437.250
DX 1 20 Dec 10:49:35 10:53:43 44° 290° (WNW) 10:57:51 434.975-435.025
DELFI C3 20 Dec 10:50:07 10:53:54 35° 291° (WNW) 10:57:40 145.870
POPSAT HIP 1 20 Dec 10:50:57 10:54:52 38° 262° (W) 10:58:49 437.405
50 SAT 20 Dec 10:51:29 10:55:37 62° 101° (E) 10:59:45 437.505
CUBEBUG 1 20 Dec 10:56:43 11:00:35 31° 96° (E) 11:04:25 437.445
HUMSAT D 20 Dec 11:10:02 11:14:20 68° 286° (WNW) 11:18:39 437.325/437.525
Oscar 11 20 Dec 11:13:40 11:16:55 21° 296° (WNW) 11:20:09 145.826/435.025
Oscar 19 20 Dec 11:14:57 11:17:52 15° 57° (ENE) 11:20:48 437.125/150
UNISAT 6 20 Dec 11:15:16 11:18:04 17° 270° (W) 11:20:56 437.425
DOVE 4 20 Dec 11:16:08 11:18:46 15° 299° (WNW) 11:21:28 437.250
DUCHIFAT 1 20 Dec 11:20:16 11:23:22 20° 267° (W) 11:26:28 145.980
BUGSAT 1 20 Dec 11:21:12 11:24:26 22° 266° (W) 11:27:38 437.445
UKube-1 20 Dec 11:21:43 11:25:08 23° 296° (WNW) 11:28:34 .
CUBEBUG 2 20 Dec 11:30:07 11:33:43 23° 295° (WNW) 11:37:24 437.445
QB50P2 20 Dec 11:34:25 11:36:45 14° 270° (W) 11:39:05 145.880/145.840
DANDE 20 Dec 11:37:39 11:39:31 13° 306° (NW) 11:41:35 436.750
HO-68 20 Dec 11:39:19 11:43:39 17° 312° (NW) 11:47:58 435.675
VELOX 1 20 Dec 11:42:34 11:46:39 37° 292° (WNW) 11:50:43 145.980
ZACube-1 20 Dec 11:42:40 11:46:10 23° 295° (WNW) 11:49:42 437.345
ESTCUBE 1 20 Dec 11:43:10 11:47:41 84° 285° (WNW) 11:52:10 437.505/2401.250
RS-15 20 Dec 11:43:21 11:53:52 56° 115° (ESE) 12:04:25 29.354- 29.394
POLYITAN 1 20 Dec 11:44:03 11:45:33 12° 271° (W) 11:47:02 437.675
CINEMA 3 20 Dec 11:45:17 11:47:18 13° 301° (WNW) 11:49:21 145.822/145.860
NANOSAT C BR1 20 Dec 11:47:02 11:48:11 11° 272° (W) 11:49:20 145.865
YUBILEINY 20 Dec 11:52:20 12:00:48 59° 269° (W) 12:09:15 435.215
TISAT 1 20 Dec 12:04:20 12:08:21 41° 98° (E) 12:12:20 437.305
SPROUT 20 Dec 12:06:16 12:10:21 40° 98° (E) 12:14:24 437.525
FUNcube-1 20 Dec 12:10:37 12:12:48 13° 300° (WNW) 12:14:59 145.935
UWE-3 20 Dec 12:10:44 12:12:27 12° 302° (WNW) 12:14:10 435.000/436.395/437.385
AISAT 20 Dec 12:26:41 12:29:17 16° 300° (WNW) 12:31:54 437.250
50 SAT 20 Dec 12:28:06 12:30:22 15° 299° (WNW) 12:32:39 437.505
CUBEBUG 1 20 Dec 12:33:11 12:36:53 28° 294° (WNW) 12:40:35 437.445
BEESAT 2 20 Dec 12:34:55 12:37:05 14° 110° (ESE) 12:39:17 435.950
SWISSCUBE 20 Dec 12:40:24 12:43:40 18° 91° (E) 12:46:55 437.505
ITUPSAT 1 20 Dec 12:40:52 12:43:56 17° 90° (E) 12:46:58 437.325
Oscar 19 20 Dec 12:51:21 12:56:30 86° 255° (WSW) 13:01:43 437.125/150
PCSat 20 Dec 12:52:06 12:55:39 18° 105° (ESE) 12:59:12 145.827
Gurwin Techsat 1B 20 Dec 13:00:00 13:04:35 31° 64° (ENE) 13:09:12 435.225
BEESAT 20 Dec 13:04:51 13:09:00 29° 95° (E) 13:13:06 436.000
ITAMSAT 1 20 Dec 13:06:26 13:11:28 53° 70° (ENE) 13:16:30 435.822/435.867
AO-7 20 Dec 13:07:42 13:13:11 20° 44° (NE) 13:18:40 29.400- 29.500
HORYU 2 20 Dec 13:10:56 13:13:16 14° 59° (ENE) 13:15:37 437.375
ISS 20 Dec 13:21:01 13:23:23 18° 136° (SE) 13:25:45 145.825
ESTCUBE 1 20 Dec 13:22:30 13:23:49 11° 303° (WNW) 13:25:08 437.505/2401.250
BEESAT 3 20 Dec 13:31:11 13:35:11 55° 121° (ESE) 13:39:17 437.485
AIST 2 20 Dec 13:36:35 13:40:13 28° 115° (ESE) 13:43:54 435.215
TISAT 1 20 Dec 13:40:45 13:43:56 21° 296° (WNW) 13:47:06 437.305
